Regional Weather Roundup
Issued by NWS Wakefield, VA

Home | Current Version | Previous Version | Graphics & Text | Print | Product List | Glossary On
Versions: 1 2 3 4 5 6 7 8 9 10 11 12 13 14 15 16 17 18 19 20 21 22 23 24 25 26 27 28 29 30 31 32 33 34 35 36 37 38 39 40 41 42 43 44 45 46 47 48 49 50
048
ASUS41 KAKQ 141115
RWRAKQ

REGIONAL WEATHER ROUNDUP
NATIONAL WEATHER SERVICE WAKEFIELD VA
600 AM EST SUN FEB 14 2016

Note: "fair" indicates few or no clouds below 12,000 feet with no
significant weather and/or obstructions to visibility. * = Denotes
station may not report precipitation (e.g., rain,snow,etc.),
thunder or fog.

VAZ042-051-052>054-056-141200-
NORTHERN VIRGINIA

CITY           SKY/WX    TMP DP  RH WIND       PRES   REMARKS
WASH NATIONAL  FAIR      13  -2  51 NW9       30.54R
DULLES         FAIR      10  -3  55 W3        30.52R
FORT BELVOIR   FAIR       9   0  66 W6        30.54R
QUANTICO       FAIR      15  -2  46 N9        30.57R
FREDERICKSBRG* FAIR       9   2  72 CALM      30.55R
STAFFORD*      FAIR       4   0  80 NW6       30.58R
WARRENTON      FAIR       8   5  90 CALM      30.52R
CULPEPER*      FAIR       6   1  81 CALM      30.54R
MANASSAS*      FAIR      12   1  62 NW8       30.54R
LEESBURG*      FAIR      10   3  72 W6        30.52R
WINCHESTER     FAIR      10   1  67 SE5       30.47R
FRONT ROYAL*   PTSUNNY   12   0  57 CALM      30.47R
LURAY*         PTSUNNY   10   0  61 CALM      30.46R
$$

VAZ048-049-060>072-079>083-141200-
CENTRAL AND SOUTH CENTRAL VIRGINIA

CITY           SKY/WX    TMP DP  RH WIND       PRES   REMARKS
RICHMOND       FAIR      10   2  69 N5        30.53R
CHESTERFIELD*  FAIR       9  -9  43 CALM      30.53S
PETERSBURG*    FAIR      15  -5  39 N5        30.53S
HANOVER        FAIR       6   0  76 CALM      30.55R
TAPPAHANNOCK*  FAIR      11  -1  59 CALM      30.55R
QUINTON*       FAIR       9   0  66 CALM      30.54R
CHARLOTTSVILLE FAIR       8  -4  58 VRB5      30.48S
GORDONSVILLE*  FAIR       8   0  70 CALM      30.50S
ORANGE*        FAIR       9   1  72 CALM      30.53R
LOUISA*        FAIR       1   0  92 CALM      30.49R
BUMPASS*       FAIR       5   0  80 CALM      30.52R
FARMVILLE*     FAIR      12   1  61 CALM      30.50R
CREWE*         FAIR      11  -1  57 NW3       30.51R
FORT PICKETT*  FAIR      12  -3  50 CALM      30.50S
CHASE CITY*    FAIR      13  -3  50 NW3       30.50R
CLARKSVILLE*   FAIR      16   0  48 N5        30.51R
SOUTH HILL*    FAIR      11   1  63 CALM      30.56S
LAWRENCEVILLE* FAIR      12  -2  53 CALM      30.52R
EMPORIA*       FAIR      10   1  67 CALM      30.56R
$$

VAZ088>098-141200-
SOUTHEAST VIRGINIA

CITY           SKY/WX    TMP DP  RH WIND       PRES   REMARKS
NORFOLK        FAIR      17  -3  41 NW9G21    30.53R
VIRGINIA BEACH FAIR      20  -2  38 N20G28    30.52R WCI   4
NORFOLK NAVAL  FAIR      17  -3  41 N20       30.54R WCI   1
WEST POINT*    FAIR      14  -2  49 N3        30.57R
SALUDA*        FAIR      15  -2  47 NW10G20   30.54R WCI   2
NEWPORT NEWS   FAIR      15  -3  44 N10G24    30.54R WCI   2
LANGLEY AFB    FAIR      16  -4  41 NW13      30.53R WCI   2
FORT EUSTIS    FAIR      16  -1  47 N10G18    30.52R WCI   4
WILLIAMSBURG*  FAIR      18   0  45 NW3       30.55R
HR EXEC AP*    FAIR      18  -4  38 N6        30.55R
FRANKLIN*      FAIR      13   0  56 CALM      30.55R
US460-WAKEFLD  FAIR      14  -1  51 CALM      30.54R
$$

VAZ020-022-025-037-045-141200-
WEST CENTRAL AND SOUTHWEST VIRGINIA

CITY           SKY/WX    TMP DP  RH WIND       PRES   REMARKS
STAUNTON*      FAIR       8   1  71 S3        30.45R
WAYNESBORO*    FAIR       6  -6  60 CALM      30.41R
HOT SPRINGS VA FAIR      -1  -6  78 CALM      30.13R
LYNCHBURG      FAIR       9   1  70 CALM      30.48R
DANVILLE       FAIR      17  -1  45 N7        30.50R
SOUTH BOSTON*  FAIR      14  -3  45 CALM      30.52R
MARTINSVILLE   FAIR      13  -3  48 N3        30.49R
ROANOKE        FAIR      11  -3  53 CALM      30.47R
BLACKSBURG     FAIR       7  -1  71 CALM      30.38R
DUBLIN*        FAIR       9  -1  63 CALM      30.37R
MARION*        FAIR      10   0  63 CALM      30.34R
HILLSVILLE*    CLOUDY     8  -2  62 N7        30.28R
RICHLANDS*     FAIR       7  -4  60 CALM      30.30S
WISE*          CLOUDY    12   0  57 CALM      30.30R
ABINGDON*      CLOUDY    15   1  53 E7        30.33F
$$

MDZ021>025-VAZ099-100-141200-
SOUTHERN MARYLAND AND THE DELMARVA PENINSULA

CITY           SKY/WX    TMP DP  RH WIND       PRES   REMARKS
PATUXENT RIVER CLEAR     13  -3  49 W13       30.53R WCI  -2
BAY BRIDGE APT   N/A     14  -4  44 W13       30.52R WCI   0
LEONARDTOWN    CLEAR     12  -2  52 CALM      30.54R
DOVER          CLEAR     12  -4  48 NW15      30.48R WCI  -4
GEORGETOWN     CLEAR     12  -5  46 NW6       30.50R
EASTON         CLEAR     15  -1  50 NW15      30.54R WCI  -1
CAMBRIDGE      CLEAR     14  -4  44 NW17      30.50R WCI  -3
SALISBURY      CLEAR     12  -1  56 NW6       30.50R
OCEAN CITY     CLEAR     12  -4  48 NW9       30.50R
WALLOPS ISLAND FAIR      14  -1  51 NW7       30.51R
ACCOMACK*      CLOUDY    18   0  45 N16G30    30.50R WCI   3
$$

NCZ012>017-030>032-141200-
NORTH CENTRAL AND EASTERN NORTH CAROLINA

CITY           SKY/WX    TMP DP  RH WIND       PRES   REMARKS
ROANOKE RAPIDS FAIR      12   5  73 CALM      30.53S
RALEIGH        PTCLDY    15   0  51 NE5       30.51R
ELIZABETH CITY PTCLDY    17  -1  45 N17G26    30.54R WCI   1
AHOSKIE*       PTCLDY    14   0  54 N5        30.55R
EDENTON*       PTCLDY    17   5  59 N6        30.55R
CURRITUCK*     PTCLDY    17  -1  44 NW12      30.54R WCI   5
KILL DEVIL HLS PTCLDY    19   4  53 NW12G20   30.49R WCI   7
MANTEO         PTCLDY    19   6  56 N15       30.51R WCI   5
CAPE HATTERAS  CLEAR     23   9  55 N8G20     30.48R
TARBORO*       FAIR      16   3  55 NE6       30.55S
GOLDSBORO      PTCLDY    19  -2  38 NE5       30.50R
WASHINGTON     PTCLDY    17   0  47 N8        30.52S
GREENVILLE     PTCLDY    18   3  53 N9        30.52R
NEW BERN       CLEAR     19  -1  41 N15G22    30.52R WCI   5
WILMINGTON     PTCLDY    22   4  46 N8        30.50R
$$

VAZ048-141200-
ELSEWHERE

CITY           SKY/WX    TMP DP  RH WIND       PRES   REMARKS
HARRISBURG PA  PTCLDY     9  -4  55 NW12      30.47R WCI  -6
BALTIMORE      PTCLDY     9  -1  64 W8        30.51R
ANNAPOLIS      CLEAR     12  -1  56 W7        30.52R
ANDREWS AFB    FAIR      12  -2  52 NW9       30.50R
PHILADELPHIA   PTCLDY    10 -10  40 NW9       30.49R
HENDERSON NC   CLEAR     13  -1  52 N5        30.50R
GREENSBORO     CLOUDY    16  -1  47 NE8       30.45R
ROCKY MOUNT    PTCLDY    14   3  61 N7        30.53R
$$

VAZ100-141200-
MARINE

STATION/POSITION TIME  TEMP    WIND        PRES    WAVE   SWELL
                       AIR SEA DIR/SP/G            HT/PER HT/PER
                 (UTC) (F)     (DEG/KT/KT) (MB)    (FT/S) (FT/S)
BRANDYWINE LGT   1006   14     330/ 20/ 30 1030.8R
CAPE MAY NJ      1006   15 31  330/ 16/ 26 1030.8R
LEWES DE         1006   15 32  310/ 20/ 25 1031.4R
15NM E FENWICK I 1050   18 43              1031.6R   6/ 6
OCEAN-CITY-INLET 1006   15 37  330/ 11/ 14 1031.1R
WACHAPREAGUE VA  1006   17 29  310/  4/ 12 1032.3R
THOMAS POINT MD  1100   14 35  310/ 13/ 16 1034.3R
GOOSES REEF MD   1100   16 36  270/ 12/ 17 1034.6R   2/ 4
COVE POINT MD    1006   13     330/ 13/ 19 1033.7R
SOLOMONS ISLAND  1006   15 37  320/ 10/ 14   N/A
BISHOPS HEAD MD  1006   15 30  320/ 15/ 22 1031.9R
PINEY POINT MD   1000          340/ 24/ 28   N/A
POTOMAC MD       1100   17 36  340/ 17/ 23 1032.8R   2/ 3
CAMBRIDGE MD     1006   16 33  310/ 17/ 24 1031.8R
LEWISETTA VA     1006   16 33  340/ 14/ 18 1033.3R
RAPPAHANNOCK LGT 1000          320/ 27/ 32 1032.4R
STINGRAY PT      1100   17 37  320/ 16/ 19 1034.0R   2/ 3
YORK RVR RNG VA  1006   18     340/ 20/ 25 1032.7R
YORKTOWN VA      1006   17 39  330/ 15/ 19 1033.4R
JAMESTOWN VA     1100   15 39  350/  8/ 14   N/A
DOMINION TERM VA 1006   17     350/  8/ 14 1033.5R
KIPTOPEKE VA     1000      36  350/ 20/ 29   N/A
CHES BAY BRIDGE  1006   19 39  330/ 24/ 26 1032.5R
CAPE HENRY VA    1006   18     330/ 25/ 27   N/A
CHESAPEAKE LGHT  1000   19     350/ 27/ 31 1032.2R
WILLOUBY STN VA  1006   17     340/ 19/ 25 1034.0R
CAPE HENRY BUOY  1058      42                N/A     6/ 4
1ST LANDING BUOY 1100      39                N/A     3/ 3
CAPE CHARLES BUO 0956      41                N/A     4/ 5   2/12
OFFSHORE WE BUOY 1021      45                N/A     6/ 6   2/11
64NM E OF VA BCH 1050   23 50  340/ 23/ 33 1031.0R   8/ 8
DUCK PIER NC     1006   20     330/ 19/ 25 1031.4R
44100 DUCK FRF   1024      44                N/A     7/ 7
44056 DUCK FRF   1011      42                N/A     6/ 7
OREGON INLET NC  1006   21 40  320/ 14/ 18 1031.9R
HATTERAS NC      1006   24 39  350/ 24/ 29 1030.8R
DIAMOND SHLS NC  1050   29 72  360/ 23/ 29 1030.9R   6/ 6   2/10
CAPE LOOKOUT NC  1C1F1C2F2C3F3C4F4C5F5C6F6C7F7C8M1C9!



USA.gov is the U.S. government's official web portal to all federal, state and local government web resources and services.